Find Starlink 35709

NORAD ID: 66216 Int'l Des: 2025-244 Owner: SPXS Country: US Constellation: starlink operational
LEOCIRCULAR

当前视图

正在加载3D地球...

About Starlink 35709

Starlink 35709 (NORAD 66216) is a starlink constellation satellite (v2 mini) launched Oct 28, 2025 by SPXS of US. It operates in LEO, CIRCULAR orbit with a mass of 575.00 kg.

即将过境

Passes for default location (London). Set your location on the main map for personalized predictions.

高度历史

Loading altitude history...

两行轨道根数

1 66216U 25244L 26263.40979415 .00012523 00000-0 38112-3 0 9997
2 66216 53.1594 43.9288 0001307 84.5612 275.5540 15.34401426 51498
Epoch: Sep 20, 2026 • Age: 13 hours

当前状态

高度 462.6 km
远地点 / 近地点 N/A
速度 7.64 km/s
星下点 9.55°N, 72.97°E
发射日期 Oct 28, 2025
运行时间 0.8 years
类型 internet

技术详情

分类 Payload
质量 575.00 kg
干质量 530.00 kg
长度 0.30 m
跨度 29.00 m
形状 ? Box + pan
制造商 SPXS
平台类型 Starlink V2MO
阶段状态 In Orbit
所有者/国家 SPXS/US

Most Searched